sat.trackr.live / text

‹ back to catalog

STARLINK-30174

NORAD 57609 · 2023-119H

PAYLOAD ACTIVE UNKNOWN

§ Identity

Operator
Country
US
Launch date
2023-08-11
Launch site
AFETR
Launch vehicle
Mass (kg)
RCS (m²)

Purposes: comms

External: N2YO · Heavens-Above · Gunter

§ Orbital elements

Epoch: 2026-09-19T04:38:14.737632Z

Period
94.27 min
Inclination
43.0072°
Eccentricity
0.0001969
Mean motion
15.27574819 rev/d
Perigee alt
481.7 km
Apogee alt
484.4 km
Semi-major
6,861.2 km
B*
6.1557e-5
RAAN
68.4783°
Arg perigee
260.3468°
Mean anomaly
99.7161°
Rev number
17,268

§ Raw data

STARLINK-301741 57609U 23119H   26262.19322613  .00001432  00000+0  61557-4 0  99952 57609  43.0072  68.4783 0001969 260.3468  99.7161 15.27574819172681

JSON: /api/v1/satellites/57609 · /tle

For live sub-satellite position, see the globe view (requires WebGL).

§ Visibility from observer

Set your observer location to see the next 7 days of passes ≥ 10°. The values pass through the URL so the page stays shareable.

No JS? Fill the form by hand. The geolocation button needs JavaScript.